Regional Weather Roundup
Issued by NWS San Angelo, TX

Home | Current Version | Previous Version | Text Only | Print | Product List | Glossary On
Versions: 1 2 3 4 5 6 7 8 9 10 11 12 13 14 15 16 17 18 19 20 21 22 23 24 25 26 27 28 29 30 31 32 33 34 35 36 37 38 39 40 41 42 43 44 45 46 47 48 49 50
000
ASUS44 KSJT 010211
RWRSJT
WEST CENTRAL TEXAS REGIONAL WEATHER ROUNDUP
NATIONAL WEATHER SERVICE SAN ANGELO TX
900 PM CDT WED AUG 31 2016

NOTE: "FAIR" INDICATES FEW OR NO CLOUDS BELOW 12,000 FEET WITH NO
SIGNIFICANT WEATHER AND/OR OBSTRUCTIONS TO VISIBILITY.

TXZ049-054-064>066-071>073-076>078-098-099-113-114-127-128-139-140-
154-155-168>170-010300
...LOCATIONS ACROSS WEST CENTRAL TEXAS...

CITY           SKY/WX    TMP DP  RH WIND       PRES   REMARKS
SAN ANGELO     CLOUDY    79  66  64 NE7       30.02R
ABILENE        CLOUDY    80  69  69 W6        30.04R
DYESS AFB      LGT RAIN  77  68  75 NE17G24   30.04R
JUNCTION       CLOUDY    84  63  49 NE6       30.00R
SWEETWATER     CLOUDY    73  69  86 N9        30.13R THUNDER
BROWNWOOD      MOCLDY    82  68  61 E6        30.01R
COLEMAN        CLEAR     82  67  60 N5        30.03R
SONORA         TSTM      72  70  94 SW10      30.10R VSB 1/2
OZONA          FAIR      79  63  57 NE3       30.07R
BRADY          NOT AVBL
$$

TEXAS PANHANDLE/OKLAHOMA PANHANDLE

CITY           SKY/WX    TMP DP  RH WIND       PRES   REMARKS
AMARILLO       PTCLDY    68  63  84 CALM      30.19R
BORGER         PTCLDY    71  64  78 SE8       30.17R
CANADIAN       MOCLDY    68  68  99 CALM      30.13R FOG
DALHART        PTCLDY    70  62  76 E5        30.22R
DUMAS          PTCLDY    67  62  84 E9        30.20S
GUYMON         NOT AVBL
HEREFORD       MOCLDY    69  65  89 CALM      30.21R
PAMPA          PTCLDY    68  66  93 CALM      30.19R
PERRYTON       CLOUDY    71  67  89 NE7       30.16R
$$

SOUTHERN PANHANDLE/SOUTH PLAINS/ROLLING PLAINS

CITY           SKY/WX    TMP DP  RH WIND       PRES   REMARKS
LUBBOCK        CLOUDY    68  66  93 N3        30.15R
SNYDER           N/A     73  69  88 SE15      30.12R THUNDER
CHILDRESS        N/A    N/A N/A N/A MISG      30.11R
SEMINOLE       CLOUDY    69  67  92 CALM      30.16R
$$

PERMIAN BASIN

CITY           SKY/WX    TMP DP  RH WIND       PRES   REMARKS
MIDLAND        LGT RAIN  73  66  78 N10       30.10R
ODESSA         LGT RAIN  73  64  73 N6        30.12R
WINK           PTCLDY    73  65  75 E10       30.10R
$$

FAR WEST/SOUTHWEST MOUNTAINS/TRANS PECOS

CITY           SKY/WX    TMP DP  RH WIND       PRES   REMARKS
ALPINE         CLOUDY    69  64  82 CALM      30.24R
DRYDEN           N/A     79  70  74 N3        30.03R
EL PASO        MOCLDY    77  64  64 E6        30.11R
FORT STOCKTON  CLEAR     76  65  68 E6        30.10R
GUADALUPE PASS LGT RAIN  64  63  96 NE22      30.25S
MARFA          CLEAR    N/A N/A N/A NE7       30.21R
PECOS          CLOUDY    76  66  71 N6        30.09R
$$

DALLAS/FORT WORTH METROPLEX

CITY           SKY/WX    TMP DP  RH WIND       PRES   REMARKS
DFW AIRPORT    PTCLDY    89  68  49 CALM      29.94R
FTW MEACHAM    CLEAR     88  68  51 CALM      29.95R
DAL-EXECUTIVE  CLEAR     83  72  69 E5        29.94R
GRAND PRAIRIE  PTCLDY    88  68  51 CALM      29.96R
ADDISON        NOT AVBL
MESQUITE       PTCLDY    84  69  61 CALM      29.94R
LANCASTER      CLEAR     84  71  63 CALM      29.95R
$$

NORTH CENTRAL TEXAS

CITY           SKY/WX    TMP DP  RH WIND       PRES   REMARKS
SHRMAN/DENISON PTCLDY    80  72  77 CALM      29.99R
GAINESVILLE      N/A     79  67  67 N8        30.02R
BRIDGEPORT     PTCLDY    81  70  69 N8        30.01R
DENTON         MOCLDY    84  70  62 NE13      29.96R
WAXAHACHIE     CLEAR     80  72  75 CALM      29.96R
GRANBURY       MOCLDY    84  70  63 SE10      29.99R
$$

WESTERN NORTH TEXAS

CITY           SKY/WX    TMP DP  RH WIND       PRES   REMARKS
WICHITA FALLS  CLOUDY    74  70  87 NE10      30.04R
VERNON         CLOUDY    77  67  72 NE5       30.08R
BRECKENRIDGE   PTCLDY    83  68  59 N17G23    30.02R
COMANCHE       PTCLDY    82  69  66 NE3       30.00R
$$

CENTRAL AND SOUTH CENTRAL TEXAS

CITY           SKY/WX    TMP DP  RH WIND       PRES   REMARKS
AUSTIN/BERGSTM PTCLDY    85  72  65 E3        29.92R
WACO           CLEAR     83  72  69 E3        29.93R
HILLSBORO      CLEAR     80  70  70 E5        29.95R
TEMPLE         NOT AVBL
KILLEEN-GRAY   PTCLDY    84  71  63 NE5       29.95R
FORT HOOD      CLEAR     83  71  66 E3        29.93R
GEORGETOWN     NOT AVBL
LAGO VISTA     FAIR      82  69  64 CALM      29.97R
SAN MARCOS     NOT AVBL
NEW BRAUNFELS  CLOUDY    78  74  87 NW6       29.91R
RANDOLPH AFB   MOCLDY    78  76  93 NW6       29.93R
SAN ANTONIO    CLOUDY    79  67  66 NW6       29.94R
STINSON        MOCLDY    81  74  79 CALM      29.91R
PLEASANTON     NOT AVBL
LA GRANGE      CLEAR     83  76  79 CALM      29.90R
GIDDINGS       CLEAR     80  73  80 CALM      29.96R
$$

EAST TEXAS

CITY           SKY/WX    TMP DP  RH WIND       PRES   REMARKS
PARIS          PTCLDY    81  70  69 NE6       29.97R
CLARKSVILLE    NOT AVBL
TYLER          CLEAR     85  72  65 CALM      29.94R
LONGVIEW       CLEAR     80  74  81 CALM      29.92R
PALESTINE      CLEAR     82  74  76 NE3       29.93R
NACOGDOCHES    CLEAR    N/A N/A N/A CALM      29.90R
$$

TEXAS HILL COUNTRY AND EDWARDS PLATEAU

CITY           SKY/WX    TMP DP  RH WIND       PRES   REMARKS
LLANO          CLEAR     81  73  78 CALM      30.01R
HORSESHOE BAY  FAIR      79  72  79 CALM      29.96R
KERRVILLE      PTCLDY    76  73  88 N3        29.99S
FREDERICKSBRG  CLEAR     77  69  75 CALM      30.00R
ROCKSPRINGS    CLOUDY    75  70  83 CALM      30.07R
HONDO          MOCLDY    76  74  93 N7        29.95R
UVALDE         CLOUDY    77  70  80 N5        29.96R
DEL RIO        CLOUDY    81  74  79 CALM      29.95R
$$

SOUTHEAST TEXAS

CITY           SKY/WX    TMP DP  RH WIND       PRES   REMARKS
COLLEGE STN    CLEAR     86  72  62 NE6       29.91R
CALDWELL       CLEAR     82  72  69 CALM      29.94R
CROCKETT       MOCLDY    79  77  94 MISG      29.95R
BRENHAM        CLEAR     84  76  75 CALM      29.91R
HUNTSVILLE     CLEAR     83  72  69 CALM      29.91R
CONROE         CLEAR     80  78  94 CALM      29.90R
HOUSTON BUSH   PTCLDY    80  75  84 CALM      29.89R
HOUSTON HOBBY  MOCLDY    86  73  65 CALM      29.88R
PERLAND        CLEAR     82  78  88 CALM      29.89R
WHARTON        PTCLDY    77  75  95 CALM      29.90R
$$

THE UPPER TEXAS COAST

CITY           SKY/WX    TMP DP  RH WIND       PRES   REMARKS
ORANGE         PTCLDY    80  75  87 CALM      29.88R
PORT ARTHUR    CLOUDY    84  74  71 N7        29.86R
GALVESTON      MOCLDY    86  77  74 CALM      29.88R
ANGLETON       MOCLDY    81  78  91 CALM      29.89R
BAY CITY       MOCLDY    78  77  95 CALM      29.89R
$$

TEXAS COASTAL BEND, RIO GRANDE PLAINS DEEP SOUTH TEXAS

CITY           SKY/WX    TMP DP  RH WIND       PRES   REMARKS
VICTORIA       CLOUDY    80  76  87 SW3       29.90R
BEEVILLE       CLOUDY    77  77 100 CALM      29.90R
ROCKPORT       PTCLDY    78  74  87 CALM      29.89R
PORT ARANSAS   CLOUDY    82  74  77 NE6       29.89R
PORT LAVACA    CLOUDY    79  77  94 CALM      29.89R
CORPUS CHRISTI CLOUDY    81  75  82 N6        29.89R
KINGSVILLE NAS MOCLDY    81  76  84 N5        29.89R
COTULLA        CLOUDY    84  70  62 E5        29.91S
LAREDO         CLOUDY    86  71  60 SE7       29.92R
BROWNSVILLE    CLEAR     83  77  82 NE6       29.88R
PORT ISABEL    CLEAR     83  77  82 NE6       29.87R
HEBBRONVILLE   CLEAR     80  71  73 SE3       29.93R
MCALLEN        CLEAR     88  72  58 E9        29.89R
WESLACO        CLEAR     80  43  27 E6        29.88R
FALFURRIAS     MOCLDY    80  75  86 N3        29.90R
EDINBURG       CLEAR     85  72  63 E5        29.89R
$$




USA.gov is the U.S. government's official web portal to all federal, state and local government web resources and services.